This is the latest recevied weather packets stored in our database for station/object NI4CE-11. If no packets are shown the sender has not sent any weather packets the latest 10 day(s).
| Time | Temp. | Humidity | Pressure | Rain* | Wind** | Luminosity | Snow |
|---|---|---|---|---|---|---|---|
| 1777831798 | 24.44° C | 100% | 1017.6 hPa | 0 mm | - | - | - |
| 1777831499 | 23.89° C | 100% | 1017.6 hPa | 0 mm | - | - | - |
| 1777831291 | 24.44° C | 100% | 1017.8 hPa | 0 mm | - | - | - |
| 1777831240 | 23.89° C | 100% | 1017.7 hPa | 0 mm | - | - | - |
| 1777831199 | 23.89° C | 100% | 1017.7 hPa | 0 mm | - | - | - |
| 1777830898 | 24.44° C | 100% | 1017.8 hPa | 0 mm | - | - | - |
| 1777830711 | 23.33° C | 100% | 1017.9 hPa | 0 mm | - | - | - |
| 1777830598 | 23.33° C | 100% | 1017.9 hPa | 0 mm | - | - | - |
| 1777830299 | 23.33° C | 100% | 1018 hPa | 0 mm | - | - | - |
| 1777829999 | 23.89° C | 100% | 1018 hPa | 0 mm | - | - | - |
| 1777829699 | 23.33° C | 100% | 1018 hPa | 0 mm | - | - | - |
| 1777829399 | 22.78° C | 100% | 1018 hPa | 0 mm | - | - | - |
| 1777829119 | 22.22° C | 100% | 1018.2 hPa | 0 mm | - | - | - |
| 1777829099 | 23.33° C | 100% | 1018.1 hPa | 0 mm | - | - | - |
| 1777828799 | 22.22° C | 100% | 1018.2 hPa | 0 mm | - | - | - |
| 1777828778 | 22.78° C | 100% | 1018.2 hPa | 0 mm | - | - | - |
| 1777828499 | 22.78° C | 100% | 1018.2 hPa | 0 mm | - | - | - |
| 1777828282 | 22.78° C | 100% | 1018.3 hPa | 0 mm | - | - | - |
| 1777828199 | 22.78° C | 100% | 1018.1 hPa | 0 mm | - | - | - |
| 1777827899 | 22.78° C | 100% | 1018.3 hPa | 0 mm | - | - | - |
| 1777827819 | 23.33° C | 100% | 1018.3 hPa | 0 mm | - | - | - |
| 1777827599 | 23.33° C | 100% | 1018.3 hPa | 0 mm | - | - | - |
| 1777827299 | 22.22° C | 100% | 1018.3 hPa | 0 mm | - | - | - |
| 1777827214 | 21.67° C | 100% | 1018.4 hPa | 0 mm | - | - | - |
| 1777827125 | 21.67° C | 100% | 1018.6 hPa | 0 mm | - | - | - |
* Rain latest hour (hover to see other rain measurements)
** Current wind speed in m/s (hover to see current wind gust speed)